User: anonymous   Login
Location: Albany
(35.0000°S, 118.0000°E)
Time: 19:09:37
(UTC-05:00)
Language:

CZ-4B R/B - Orbit

View from above orbital plane
View from above orbital plane
View from above satellite
View from above satellite

Ground track
Ground track

The orbit data is extracted from the following two-line orbital elements,

1 33410U 08053C   14330.09716808  .00003649  00000-0  28844-3 0  9932
2 33410 097.6065 302.2384 0130113 084.3850 277.2193 14.94762823331021
Epoch (UTC): 26 November 2014 02:19:55
Eccentricity: 0.0130113
inclination: 97.6065°
perigee height: 492 km
apogee height: 673 km
right ascension of ascending node: 302.2384°
argument of perigee: 84.3850°
revolutions per day: 14.94762823
mean anomaly at epoch: 277.2193°
orbit number at epoch: 33102

The dashed part of the orbit path shows where the satellite is in the earth's shadow,  

DLR